Regional Weather Roundup
Issued by NWS Midland/Odessa, TX

Skip options and go directly to product.
Home | Oldest Version | Previous Version | Current Version | All | Text Only | Save Text | Print | Product List | Glossary On

Skip product version selection by date and time.   
355
ASUS44 KMAF 310910
RWRMAF
MIDLAND AREA WEATHER ROUNDUP
NATIONAL WEATHER SERVICE MIDLAND TX
400 AM CDT FRI OCT 31 2014

...IN SOUTHWEST TEXAS AND SOUTHEAST NEW MEXICO...

CITY           SKY/WX    TMP DP  RH WIND       PRES   REMARKS
ALPINE         CLOUDY    57  48  73 CALM      30.37S
ANDREWS        FAIR      47  36  66 NE8       30.33S
ARTESIA        NOT AVBL
BIG SPRING     CLEAR     59  38  46 NE6       30.32R
CARLSBAD       PTCLDY    52  45  77 NW3       30.34R
DRYDEN           N/A     67  57  70 N13       30.16R
FORT STOCKTON  CLOUDY    58  52  80 NW6       30.27R
GUAD PASS      PTCLDY    53  45  74 NE39G46   30.34S
HOBBS          CLEAR     48  32  53 N9        30.35S
MARFA          CLEAR     55  48  76 N17       30.32S
MIDLAND AIRPK  CLEAR     54  40  58 N5        30.32R
MIDLAND INTL   MOCLDY    57  39  51 NE10      30.30R
ODESSA         CLEAR     55  38  52 NE8       30.31R
PECOS          CLOUDY    58  51  77 N5        30.29S
PRESIDIO       FAIR      67  40  36 N7        30.18S
SEMINOLE       CLEAR     47  34  59 NE3       30.35R
SNYDER         CLEAR     52  37  56 N10       30.31S
WINK           MOCLDY    61  38  42 NE7       30.28S
$$
...OTHER STATIONS IN TEXAS...

CITY           SKY/WX    TMP DP  RH WIND       PRES   REMARKS
ABILENE        CLEAR     55  40  56 N7        30.28R
AMARILLO       CLEAR     44  30  57 N6        30.40S
AUSTIN         LGT RAIN  62  60  93 N8        30.17S
BROWNSVILLE    CLEAR     68  67  96 W3        30.05F
CORPUS CHRISTI PTCLDY    69  67  93 CALM      30.05F
DALLAS FTW     CLEAR     56  44  64 N12       30.19R
DEL RIO        CLEAR     68  59  73 NE9       30.09S
EL PASO        PTCLDY    61  41  47 CALM      30.26S
HOUSTON INT    PTCLDY    59  54  83 CALM      30.10S
LUBBOCK        CLEAR     41  32  70 N7        30.35S WCI  36
SAN ANGELO     PTCLDY    66  54  65 NE15      30.24R
SAN ANTONIO    TSTM      66  63  90 NW10      30.15R FOG
WACO           CLEAR     59  55  87 NW8       30.17S
WICHITA FALLS  NOT AVBL
$$
...OTHER LOCATIONS IN NEW MEXICO...

CITY           SKY/WX    TMP DP  RH WIND       PRES   REMARKS
ALAMAGORDO     NOT AVBL
ALBUQUERQUE    PTCLDY    55  24  30 E14       30.34R
CANNON AFB     CLEAR     45  28  53 NE8       30.39S
CLOVIS         CLEAR     39  27  60 NE9       30.41S WCI  33
HOLLOMAN AFB   CLEAR     50  31  47 CALM      30.27R
ROSWELL        CLEAR     48  33  56 W3        30.36S
RUIDOSO        PTCLDY    41  27  56 S5        30.47S WCI  38
SANTA FE       CLEAR     39  20  46 SW10      30.41S WCI  32
TRUTH OR CONSE PTCLDY    50  28  42 NW7       30.28R
TUCUMCARI      CLEAR     41  28  60 N8        30.39S WCI  36
$$

USA.gov is the U.S. government's official web portal to all federal, state and local government web resources and services.